CST,Max TemperatureF,Mean TemperatureF,Min TemperatureF,Max Dew PointF,MeanDew PointF,Min DewpointF,Max Humidity, Mean Humidity, Min Humidity, Max Sea Level PressureIn, Mean Sea Level PressureIn, Min Sea Level PressureIn, Max VisibilityMiles, Mean VisibilityMiles, Min VisibilityMiles, Max Wind SpeedMPH, Mean Wind SpeedMPH, Max Gust SpeedMPH,PrecipitationIn, CloudCover, Events, WindDirDegrees
2013-2-1,30,24,18,19,11,5,69,55,43,30.59,30.46,30.33,10,10,10,17,10,,0.00,0,,19
2013-2-2,48,38,28,33,26,17,82,64,50,30.31,30.20,30.15,10,10,9,13,6,,0.01,3,,227
2013-2-3,53,44,36,33,29,24,79,60,34,30.19,30.16,30.09,10,10,10,17,10,24,0.00,0,,285
2013-2-4,48,42,37,41,35,26,93,73,50,30.10,29.98,29.92,10,10,10,17,9,23,0.05,5,Rain,194
2013-2-5,46,39,32,45,39,31,100,96,90,30.09,30.01,29.94,10,2,0,9,2,,0.00,5,Fog,223
2013-2-6,55,44,33,40,36,33,100,80,47,30.25,30.15,30.06,10,6,0,13,6,,0.00,1,Fog,60
2013-2-7,64,54,45,55,48,34,100,76,59,30.06,29.94,29.89,10,9,3,12,7,,0.07,5,Rain,214
2013-2-8,53,43,32,54,38,29,100,82,73,30.35,30.18,29.94,10,9,6,23,17,30,0.03,7,Rain,20
2013-2-9,50,41,32,39,31,28,88,71,52,30.37,30.26,30.05,10,10,10,12,7,,0.00,4,Rain,93
2013-2-10,57,52,46,55,47,38,93,80,61,30.03,29.86,29.72,10,9,2,28,15,40,0.13,5,Rain-Thunderstorm,178
2013-2-11,54,46,39,38,33,30,76,60,41,30.20,30.12,29.96,10,10,10,16,9,,0.02,0,,252
2013-2-12,48,42,35,40,36,33,92,77,66,30.16,30.03,29.86,10,10,7,13,5,,0.03,4,Rain,67
2013-2-13,45,41,37,39,37,36,100,88,80,30.01,29.93,29.83,10,9,4,23,13,26,0.13,6,Rain,317
2013-2-14,59,48,37,43,39,34,93,75,51,30.06,30.01,29.98,10,10,10,18,11,23,0.00,0,,226
2013-2-15,52,43,32,36,32,26,82,68,44,30.24,30.18,30.08,10,10,10,16,9,22,0.00,5,,347
2013-2-16,39,34,28,27,21,15,85,64,39,30.30,30.26,30.23,10,10,10,15,7,17,0.00,3,,308
2013-2-17,53,42,30,29,26,24,79,55,34,30.26,30.17,30.05,10,10,10,16,9,22,0.00,3,,193
2013-2-18,57,51,45,50,44,30,94,76,56,30.04,29.87,29.74,10,8,2,31,19,38,0.15,6,Rain-Thunderstorm,205
2013-2-19,48,39,28,36,27,22,79,63,37,30.30,30.18,29.99,10,10,10,18,13,26,0.19,1,,307
2013-2-20,34,31,28,23,19,15,75,61,48,30.41,30.32,30.25,10,10,10,10,8,,0.05,4,,42
2013-2-21,39,34,30,38,30,21,100,85,64,30.24,29.93,29.79,10,8,2,25,12,32,0.01,8,Rain-Thunderstorm,82
2013-2-22,44,38,30,37,34,28,100,91,76,30.11,30.02,29.87,10,6,0,12,8,,0.02,6,Fog,251
2013-2-23,45,36,28,32,28,25,92,76,56,30.10,30.05,30.01,10,10,8,9,6,,0.01,0,,12
2013-2-24,53,40,28,34,30,26,92,68,43,30.14,30.06,29.96,10,10,6,10,5,,0.03,0,,74
2013-2-25,59,48,37,49,38,28,92,66,36,29.95,29.66,29.34,10,9,3,24,13,34,0.01,5,Rain-Thunderstorm,92
2013-2-26,53,46,39,50,40,32,94,83,70,29.80,29.50,29.31,10,10,4,26,17,34,0.01,8,Rain,224
2013-2-27,42,40,35,34,31,28,81,72,65,29.98,29.91,29.82,10,10,10,17,13,26,0.00,8,Rain,273
2013-2-28,44,40,35,32,30,27,82,72,60,30.14,30.07,29.97,10,10,10,16,12,,0.00,8,,321